This is the latest recevied weather packets stored in our database for station/object VE6EN. If no packets are shown the sender has not sent any weather packets the latest 10 day(s).
| Time | Temp. | Humidity | Pressure | Rain* | Wind** | Luminosity | Snow |
|---|---|---|---|---|---|---|---|
| 1787969403 | 19.44° C | 45% | 1010 hPa | 0 mm | - | - | - |
| 1787968804 | 19.44° C | 45% | 1009.9 hPa | 0 mm | - | - | - |
| 1787968205 | 20° C | 43% | 1009.8 hPa | 0 mm | - | - | - |
| 1787967604 | 20.56° C | 43% | 1009.8 hPa | 0 mm | - | - | - |
| 1787967005 | 20.56° C | 40% | 1009.8 hPa | 0 mm | - | - | - |
| 1787966406 | 21.11° C | 37% | 1009.7 hPa | 0 mm | - | - | - |
| 1787965804 | 21.67° C | 35% | 1009.7 hPa | 0 mm | - | - | - |
| 1787965205 | 21.67° C | 37% | 1009.6 hPa | 0 mm | - | - | - |
| 1787964787 | 21.67° C | 36% | 1009.6 hPa | 0 mm | - | - | - |
| 1787963415 | 22.22° C | 33% | 1009.6 hPa | 0 mm | - | - | - |
| 1787962808 | 22.22° C | 35% | 1009.6 hPa | 0 mm | - | - | - |
| 1787962207 | 22.22° C | 33% | 1009.5 hPa | 0 mm | - | - | - |
| 1787961603 | 21.67° C | 35% | 1009.5 hPa | 0 mm | - | - | - |
| 1787961003 | 21.67° C | 37% | 1009.5 hPa | 0 mm | - | - | - |
| 1787960403 | 21.11° C | 36% | 1009.6 hPa | 0 mm | - | - | - |
| 1787959807 | 21.11° C | 38% | 1009.6 hPa | 0 mm | - | - | - |
| 1787959204 | 21.11° C | 37% | 1009.7 hPa | 0 mm | - | - | - |
| 1787958604 | 21.11° C | 36% | 1009.7 hPa | 0 mm | - | - | - |
| 1787958004 | 21.11° C | 34% | 1009.6 hPa | 0 mm | - | - | - |
| 1787957404 | 21.67° C | 35% | 1009.8 hPa | 0 mm | - | - | - |
| 1787956804 | 21.67° C | 33% | 1009.7 hPa | 0 mm | - | - | - |
| 1787956205 | 21.67° C | 36% | 1009.8 hPa | 0 mm | - | - | - |
| 1787955606 | 21.67° C | 34% | 1009.7 hPa | 0 mm | - | - | - |
| 1787955003 | 21.67° C | 35% | 1009.6 hPa | 0 mm | - | - | - |
| 1787954404 | 21.11° C | 35% | 1009.7 hPa | 0 mm | - | - | - |
* Rain latest hour (hover to see other rain measurements)
** Current wind speed in m/s (hover to see current wind gust speed)